Location: Unspecified
(0.0000°N, 0.0000°E)
Time: 11:23:02
(UTC+00:00)

A-11 Canister half - All Passes

Search period start: 24 September 2023 00:00
Search period end: 04 October 2023 00:00
Orbit: 1524 x 1685 km, 47.3° (Epoch: 23 September)

Date Brightness Start Highest point End Pass type
(mag) Time Alt. Az. Time Alt. Az. Time Alt. Az.
24 Sep - 01:16:09 10° W 01:24:06 26° SW 01:32:05 10° S night (unlit)
24 Sep - 09:58:05 10° S 10:05:52 29° SE 10:13:29 10° ENE daylight
24 Sep - 12:01:35 10° SW 12:10:41 58° NW 12:19:45 10° NNE daylight
24 Sep - 20:48:50 10° NNE 20:51:36 11° NE 20:54:22 10° ENE visible
24 Sep - 22:47:16 10° NNW 22:57:14 65° NE 23:07:17 10° SE night (unlit)
25 Sep - 00:54:05 10° WNW 01:02:19 28° SW 01:10:35 10° S night (unlit)
25 Sep - 09:36:35 10° S 09:44:07 27° SE 09:51:30 10° ENE daylight
25 Sep - 11:39:47 10° SW 11:48:58 62° NW 11:58:06 10° NNE daylight
25 Sep - 20:29:26 10° NE 20:29:45 10° NE 20:30:04 10° NE visible
25 Sep - 22:25:37 10° NNW 22:35:28 61° NE 22:45:27 10° SE night (unlit)
26 Sep - 00:32:04 10° WNW 00:40:32 30° SW 00:49:04 10° S night (unlit)
26 Sep - 09:15:05 10° S 09:22:22 25° SE 09:29:29 10° E daylight
26 Sep - 11:18:00 10° SW 11:27:16 67° NW 11:36:27 10° NNE daylight
26 Sep - 13:31:01 10° NW 13:32:40 11° NW 13:34:19 10° NNW daylight
26 Sep - 22:03:57 10° NNW 22:13:43 57° NE 22:23:36 10° SE visible
27 Sep - 00:10:03 10° WNW 00:18:44 33° SW 00:27:31 10° S night (unlit)
27 Sep - 08:53:38 10° S 09:00:36 23° SE 09:07:27 10° E daylight
27 Sep - 10:56:13 10° SW 11:05:33 72° NW 11:14:47 10° NNE daylight
27 Sep - 13:07:51 10° WNW 13:10:52 12° NW 13:13:53 10° NNW daylight
27 Sep - 21:42:18 10° NNW 21:51:58 53° NE 22:01:45 10° SE visible
27 Sep - 23:48:06 10° WNW 23:56:57 35° SW 00:05:56 10° SSE night (unlit)
28 Sep - 08:32:11 10° S 08:38:51 21° SE 08:45:21 10° E daylight
28 Sep - 10:34:27 10° SW 10:43:51 77° NW 10:53:06 10° NE daylight
28 Sep - 12:45:11 10° WNW 12:49:04 13° NW 12:52:58 10° NNW daylight
28 Sep - 21:20:41 10° NNW 21:30:12 49° NE 21:39:52 10° ESE visible
28 Sep - 23:26:08 10° WNW 23:35:11 38° SW 23:44:21 10° SSE night (unlit)
29 Sep - 08:10:47 10° S 08:17:04 19° SE 08:23:14 10° E daylight
29 Sep - 10:12:42 10° SW 10:22:09 82° NW 10:31:25 10° NE daylight
29 Sep - 12:22:43 10° WNW 12:27:17 14° NW 12:31:53 10° NNW daylight
29 Sep - 20:59:03 10° NNW 21:08:26 46° NE 21:17:58 10° ESE visible
29 Sep - 23:04:13 10° WNW 23:13:24 41° SW 23:22:45 10° SSE night (unlit)
30 Sep - 07:49:24 10° S 07:55:18 18° SE 08:01:03 10° E daylight
30 Sep - 09:50:58 10° SW 10:00:26 87° NW 10:09:44 10° NE daylight
30 Sep - 12:00:21 10° W 12:05:30 16° NW 12:10:40 10° NNW daylight
30 Sep - 20:37:27 10° NNW 20:46:41 43° NE 20:56:04 10° ESE visible
30 Sep - 22:42:18 10° WNW 22:51:38 44° SW 23:01:08 10° SSE night (unlit)
01 Oct - 07:28:05 10° S 07:33:30 16° SE 07:38:49 10° E daylight
01 Oct - 09:29:13 10° SW 09:38:44 87° SE 09:48:01 10° NE daylight
01 Oct - 11:38:05 10° W 11:43:44 17° NW 11:49:24 10° N daylight
01 Oct - 20:15:53 10° NNW 20:24:55 40° NE 20:34:07 10° ESE visible
01 Oct - 22:20:25 10° WNW 22:29:52 47° SW 22:39:30 10° SSE visible
02 Oct - 07:06:49 10° SSE 07:11:43 15° SE 07:16:32 10° ESE daylight
02 Oct - 09:07:30 10° SW 09:17:01 82° SE 09:26:18 10° NE daylight
02 Oct - 11:15:52 10° W 11:21:58 19° NW 11:28:04 10° N daylight
02 Oct - 19:54:18 10° NNW 20:03:10 37° NE 20:12:09 10° ESE visible
02 Oct - 21:58:33 10° WNW 22:08:06 50° SW 22:17:52 10° SSE visible
03 Oct - 06:45:38 10° SSE 06:49:55 14° SE 06:54:07 10° ESE daylight
03 Oct - 08:45:48 10° SW 08:55:18 77° SE 09:04:34 10° NE daylight
03 Oct - 10:53:43 10° W 11:00:13 21° NW 11:06:41 10° N daylight
03 Oct - 19:32:46 10° NNW 19:41:23 34° NE 19:50:11 10° ESE visible
03 Oct - 21:36:43 10° NW 21:46:20 54° SW 21:56:12 10° SSE visible
